COSMOS 2219

Last updated on Sat Oct 25 2025 00:02:15 GMT+0000 (Coordinated Universal Time)

1 22219U 92076A 25297.41928457 .00000356 00000+0 21159-3 0 9999 2 22219 71.0587 302.9309 0016517 43.9896 316.2537 14.14050844699115
UTC large
Height (km)
Speed (km/s)
/
Latitude / Longitude
Inclination (degrees)
Orbital Period (minutes)
Azimuth
Elevation
Range (km)
Doppler Factor

Next 0 passes for location: London (51.5072 / 0.1276)

Sorry there are no passes over London.